Other Public Products
Issued by NWS Grand Forks, ND

Home | Current Version | Previous Version | Text Only | Print | Product List | Glossary Off
Versions: 1 2 3 4 5 6 7 8 9 10 11 12 13 14 15 16 17 18 19 20 21 22 23 24 25 26 27 28 29 30 31 32 33 34 35 36 37 38 39 40 41 42 43 44 45 46 47 48 49 50

000
FPUS83 KFGF 052210
OPUFGF
PRAIRIE TO PINES WEATHER ROUNDUP
NATIONAL WEATHER SERVICE EASTERN NORTH DAKOTA/GRAND FORKS ND
400 PM CST MON DEC 05 2016

 **SATELLITE DATA USED TO AUGMENT SKY COVER AT AUTOMATED STATIONS**
 *****  WEATHER ACROSS EASTERN NORTH DAKOTA  *****

CITY           SKY/WX    TMP DP  RH WIND       PRES   REMARKS
GRAND FORKS    CLOUDY    32  28  85 NE9       29.61F WCI  24
GRAND FORKS AF CLOUDY    30  27  90 NE9       29.61S WCI  21
GRAND CITY NWS   N/A     32 N/A N/A NE9         N/A  WCI  24
BUXTON         NOT AVBL
DEVILS LAKE    LGT SNOW  26  25  96 NE7       29.60R FOG     WCI  18
FARGO          CLOUDY    36  28  73 E10       29.53S
WAHPETON ARPT  CLOUDY    34  32  93 SE12      29.51F
$$

 *****  WEATHER ACROSS CENTRAL AND WESTERN NORTH DAKOTA  *****

CITY           SKY/WX    TMP DP  RH WIND       PRES   REMARKS
JAMESTOWN      LGT SNOW  28  27  96 NE9       29.52R VSB 1   WCI  19
BISMARCK       LGT SNOW  24  19  81 NW22G35   29.64R WCI   9
MINOT          CLOUDY    23  19  85 W21       29.60R WCI   8
MINOT AFB      CLOUDY    22  20  91 NW23      29.59S FOG     WCI   6
GARRISON         N/A     23  18  81 NW26G33   29.61S WCI   6
WILLISTON      SNOW      13   9  84 NW33G40   29.78R VSB 1/4 WCI  -9
DICKINSON      SNOW      13   9  84 NW29G39   29.70R VSB 1/2 WCI  -8
HETTINGER      LGT SNOW  18  12  77 NW29G45   29.73R VSB 1   WCI  -1
$$

 *****  OTHER OBSERVATIONS NORTHEAST NORTH DAKOTA  *****

CITY           SKY/WX    TMP DP  RH WIND       PRES   REMARKS
WALHALLA         N/A     28  28 100 NE6       29.67S WCI  22
LANGDON        FOG       27  27 100 MISG      29.62S VSB 1/4
CAVALIER         N/A     28  27  93 E9        29.66S WCI  20
GRAFTON        CLOUDY    30  30 100 NE10      29.66R WCI  21
CANDO          LGT SNOW  27  27 100 E6        29.63R VSB 1   WCI  20
FORT TOTTEN      N/A     27  27 100 NE3       29.95S
ROLLA          LGT SNOW  25  25 100 SE8       29.61R VSB 3/4 WCI  16
RUGBY          LGT SNOW  25  25 100 S3        29.59S VSB 1
 ***** THE ABOVE OBSERVATIONS ARE NON NWS ARE NOT QUALITY
        CONTROLLED AND MAY MIS-REPORT RAIN FOR SNOW...
$$

 *****  OTHER OBSERVATIONS SOUTHEAST NORTH DAKOTA *****

CITY           SKY/WX    TMP DP  RH WIND       PRES   REMARKS
COOPERSTOWN    CLOUDY    27  27 100 NE17      29.54F FOG     WCI  14
VALLEY CITY    CLOUDY    28  28 100 NE12      29.53S WCI  18
OAKES          NOT AVBL
GWINNER        CLOUDY    34  34 100 E9        29.48F
SHEYENNE NWR     N/A     34  30  86 E8        29.95S
BUFFALO        NOT AVBL
WYNDMERE       NOT AVBL
 ***** THE ABOVE OBSERVATIONS ARE NON NWS ARE NOT QUALITY
       CONTROLLED AND MAY MIS-REPORT RAIN FOR SNOW...
$$

  *****  WEATHER ACROSS NORTHERN MINNESOTA  *****

CITY           SKY/WX    TMP DP  RH WIND       PRES   REMARKS
FLAG ISLAND    CLOUDY    30  25  80 E3        29.71S
WARROAD        CLOUDY    30  27  86 E13G18    29.69S WCI  20
ROSEAU         CLOUDY    30  27  86 E16       29.67F WCI  19
HALLOCK        CLOUDY    30  28  93 NE8       29.66R WCI  23
THF RVR FALLS  CLOUDY    29  27  92 E13       29.62F WCI  19
HALSTAD          N/A     33  28  84 NE8         N/A
FOSSTON        CLOUDY    30  27  86 E10       29.59F WCI  21
BAUDETTE       CLOUDY    30  25  81 E10       29.69S WCI  21
WASKISH        CLOUDY    30  27  86 E10G18    29.67F WCI  21
CROOKSTON      CLOUDY    32  28  86 E13       29.61S WCI  22
$$
  *****  WEATHER ACROSS CENTRAL AND WEST MINNESOTA  *****

CITY           SKY/WX    TMP DP  RH WIND       PRES   REMARKS
BEMIDJI        CLOUDY    30  28  90 E12       29.62S WCI  21
PARK RAPIDS    LGT SNOW  33  27  78 E12       29.58F VSB 3/4 WCI  24
WADENA         LGT SNOW  30  30 100 E12G17    29.56S VSB 1   WCI  21
DETROIT LAKES  FLURRIES  32  30  93 E10G22    29.54F WCI  24
MOORHEAD       CLOUDY    34  28  80 E7        29.55R
FERGUS FALLS   CLOUDY    36  30  80 SE14G21   29.56R
ELBOW LAKE     CLOUDY    35  32  90 SE13G21   29.52R
MORRIS MN      CLOUDY    36  34  93 SE16      29.50R
STAPLES        LGT SNOW  30  30 100 E7        29.58S VSB 3/4 WCI  23
WHEATON        CLOUDY    37  34  87 SE12      29.51F
$$
  *****  WEATHER ELSEWHERE ACROSS MINNESOTA  *****

CITY           SKY/WX    TMP DP  RH WIND       PRES   REMARKS
DULUTH         CLOUDY    33  30  88 E15       29.73R WCI  23
INTRNTL FALLS  CLOUDY    30  24  78 E8        29.72F WCI  22
ELY            CLOUDY    28  27  93 E7        29.74R WCI  21
CLOQUET        LGT SNOW  34  30  86 E10       29.71F
BRAINERD       HVY SNOW  32  31  96 E7        29.63R VSB 1/4
HIBBING        CLOUDY    31  27  85 E10       29.69F WCI  22
ALEXANDRIA     MIX PCPN  34  32  92 E14       29.53F WCI  25
SAINT CLOUD    MOCLDY    35  33  92 E10       29.61R
MINNEAPOLIS    CLOUDY    39  31  72 S10G23    29.67S
$$

  *****  WEATHER ACROSS SOUTH DAKOTA  *****

CITY           SKY/WX    TMP DP  RH WIND       PRES   REMARKS
SIOUX FALLS    MOCLDY    44  34  67 SW13G22   29.55R
BROOKINGS      PTCLDY    43  34  70 S14       29.48R
WATERTOWN      PTCLDY    38  32  79 SW12      29.45R
HURON          CLOUDY    36  30  79 W26G35    29.55R
SISSETON         N/A     35  32  88 S7        29.48S
ABERDEEN       CLOUDY    37  29  72 W10       29.49R
MITCHELL       MOCLDY    38  29  70 W21G28    29.61R
PIERRE         SNOW      27  24  89 NW30G37   29.67R VSB 1/4 WCI  11
MOBRIDGE       SNOW      26  21  81 NW32G43   29.60R VSB 1/2 WCI   9
RAPID CITY     MOCLDY    25  11  55 NW31G46   29.75R WCI   8
$$

  *****  SOME WEATHER IN NEARBY STATES *****

CITY           SKY/WX    TMP DP  RH WIND       PRES   REMARKS
GLASGOW MT     CLOUDY     9  -1  64 NW26G39   29.98R WCI -13
GREAT FALLS MT CLOUDY    12   4  70 N7        30.04S WCI   1
CHEYENNE WY    CLOUDY    25 -14  17 NW25G39   29.75R WCI   9
SCOTTSBLUFF NE MOSUNNY   29  11  47 NW26G35   29.81R WCI  14
OMAHA NE       MOCLDY    50  36  58 S21       29.64R
DES MOINES IA  PTCLDY    47  34  60 S17       29.75F
DAVENPORT IA   CLOUDY    34  32  92 SE10      29.92S FOG
CHICAGO IL     CLOUDY    32  30  92 S8        29.99F FOG     WCI  25
EAU CLAIRE WI  CLOUDY    36  32  85 SE9       29.78F
LA CROSSE WI   CLOUDY    38  32  79 S14       29.84S
$$

  *****  SOME NATIONAL WEATHER *****

CITY           SKY/WX    TMP DP  RH WIND       PRES   REMARKS
LA GUARDIA NY  MOCLDY    49  33  54 NW16      30.02R
RALEIGH NC     MOCLDY    55  41  59 NE7       30.00F
ATLANTA GA     FOG       52  51  97 NE12      29.91F VSB 1/2
NEW ORLEANS LA CLOUDY    61  61 100 E13       29.73F
OKLAHOMA CITY  MOSUNNY   51  41  68 S9        29.69F
ALBUQUERQUE NM MOSUNNY   53  17  24 SW7       29.79S
SALT LAKE CITY MOSUNNY   33   8  35 N7        30.04S
LOS ANGELES CA PTSUNNY   63  54  72 W8        29.92F
BOISE ID       SUNNY     33  14  45 CALM      30.08F
SEATTLE WA     CLOUDY    39  36  89 S6        30.02F
$$

*** WEATHER ACROSS MANITOBA...SASKATCHEWAN AND ONTARIO ***
                ***ONTARIO***

CITY           SKY/WX    TMP DP  RH WIND       PRES   REMARKS
GERALDTON      FLURRIES  30  28  93 NW5       29.78R
THUNDER BAY    CLOUDY    32  30  93 SW7       29.83R
SIOUX LOOKOUT  MOCLDY    30  27  86 VRB2      29.75S
TORONTO        MOCLDY    39  28  65 W10       30.00R
BIG TROUT LK   FLURRIES  25  23  93 S2        29.81R
PICKLE LAKE    FLURRIES  27  25  93 E3        29.78R
DRYDEN         CLOUDY    30  28  93 VRB2      29.74R
KENORA         FLURRIES  28  25  86 E10       29.73R WCI  19
$$
                *** MANITOBA***

CITY           SKY/WX    TMP DP  RH WIND       PRES   REMARKS
BRANDON        FRZ DRZL  25  25 100 E14       29.67R WCI  13
DAUPHIN        LGT SNOW  25  23  93 N12       29.78R WCI  14
ISLAND LAKE    FLURRIES  27  25  93 CALM      29.80R
PILOT MOUND      N/A     25  25 100 E13G20      N/A  WCI  13
THE PAS        CLOUDY    23  21  93 W8        29.82R WCI  14
THOMPSON       FLURRIES  23  23 100 NE2       29.81R
WINNIPEG       CLOUDY    30  27  86 E9        29.71S WCI  22
LYNN LAKE      FLURRIES  25  25 100 N3        29.79R
CHURCHILL      FLURRIES  23  23 100 W2        29.91R
GILLAM         LGT SNOW  18  16  93 NE3       29.86R
$$
                ***SASKATCHEWAN***

CITY           SKY/WX    TMP DP  RH WIND       PRES   REMARKS
ESTEVAN        HVY SNOW  18  16  93 NW31G40   29.70R VSB 1/8 WCI  -2
KINDERSLEY     CLOUDY     3  -2  78 NW18G26   30.03R BLWGSNOWWCI -17
LLOYDMINSTER   MOCLDY     1  -6  71 NW20G28   30.05R WCI -20
PRINCE ALBERT  CLOUDY    12   3  67 NW12      29.95R WCI  -2
REGINA         LGT SNOW  16  10  79 NW24      29.85R BLWGSNOWWCI  -3
YORKTON        CLOUDY    21  21 100 N20G25    29.78R WCC1F1C2F2C3F3C4F4C5F5C6F6C7F7C8F8C9F9CaFaCbFbCcFcCdFdCe!


USA.gov is the U.S. government's official web portal to all federal, state and local government web resources and services.